Location: Gleizolles
(44.4833°N, 6.7667°E)
Time: 04:46:28
(UTC+00:00)

Vanguard 2 - Pass Details

Date: 28 June 2024
Orbit: 552 x 2913 km, 32.9° (Epoch: 17 July)

Event Time Altitude Azimuth Distance (km) Brightness Sun altitude
Exits shadow 00:59:44 10° 156° (SSE) 4,113 10.8 -19.6°
Maximum altitude 01:04:34 14° 130° (SE) 4,251 11.1 -19.3°
Drops below altitude 10° 01:10:22 10° 105° (ESE) 5,002 11.7 -18.9°
Sets 01:17:59 0° 85° (E) 6,451 12.6 -18.4°
